066  
ASUS43 KGLD 150208  
RWRGLD  
 
GOODLAND FORECAST AREA HOURLY WEATHER ROUNDUP  
NATIONAL WEATHER SERVICE GOODLAND KS  
800 PM MDT FRI MAY 14 2021  
   
..OFFICIAL OBSERVATIONS
 
 
 
CITY SKY/WX TMP DP RH WIND PRES REMARKS
 
GOODLAND KS CLOUDY 61 53 75 E14 29.99F  
HILL CITY KS CLOUDY 65 57 75 NE13 29.99R  
IMPERIAL NEB LGT RAIN 61 52 72 E12 30.03S  
MCCOOK NEB CLOUDY 64 53 67 E13 30.02S  
AKRON CO N/A 59 50 72 E22 30.01S THUNDER  
BURLINGTON CO CLOUDY 61 48 62 E10 29.97F  
LIMON CO PTCLDY 58 47 66 E13 30.02S  

 
   
..UNOFFICIAL OBSERVATIONS
 
 
 
CITY SKY/WX TMP DP RH WIND PRES REMARKS
 
COLBY KS MOCLDY 60 58 92 E16 30.01S  
NORTON KS MOCLDY 61 54 77 E12 30.04F  
SHARON SPRINGS N/A 61 50 67 NE12G20 N/A  
YUMA CO FAIR 59 25 27 NE13 30.02  

 
 
 
CLICK HERE TO GO TO PREVIOUS BULLETINS.

The Nexlab KS Page
The Nexlab CO Page
The Nexlab NE Page Main Text Page